W2GM Weather Reports


time (UTC)temp
C
wind
direction
speed
KPH
gust
KPH
rain 1hr
cm
rain 24hr
cm
rain mn
cm
humidity
%
barometer
mb
20260504151103 17 208 4.8 14.5 0.00 0.00 0.00 45 1012.2
20260504151005 17 239 4.8 14.5 0.00 0.00 0.00 44 1012.1
20260504150903 17 244 4.8 14.5 0.00 0.00 0.00 44 1012.2
20260504150805 17 242 4.8 14.5 0.00 0.00 0.00 44 1012.2
20260504150701 17 239 4.8 14.5 0.00 0.00 0.00 43 1012.2
20260504150633 17 256 3.2 14.5 0.00 0.00 0.00 44 1012.3
20260504150300 17 247 3.2 9.7 0.00 0.00 0.00 45 1012.5
20260504150201 17 225 3.2 8.0 0.00 0.00 0.00 45 1012.3
20260504150114 17 195 3.2 16.1 0.00 0.00 0.00 46 1012.4
20260504141236 15 239 4.8 14.5 0.00 0.00 0.00 51 1012.7
20260504141149 15 221 4.8 14.5 0.00 0.00 0.00 51 1012.7
20260504140933 15 219 6.4 14.5 0.00 0.00 0.00 52 1012.8
20260504140832 15 242 6.4 14.5 0.00 0.00 0.00 51 1012.8
20260504140747 15 238 6.4 14.5 0.00 0.00 0.00 52 1012.7
20260504140530 15 238 4.8 14.5 0.00 0.00 0.00 50 1012.8
20260504140430 15 219 4.8 14.5 0.00 0.00 0.00 51 1012.8
20260504140344 15 252 4.8 14.5 0.00 0.00 0.00 51 1012.8
20260504140128 15 238 4.8 14.5 0.00 0.00 0.00 51 1012.7
20260504130758 12 182 1.6 8.0 0.00 0.00 0.00 56 1013.1
20260504130659 12 179 1.6 8.0 0.00 0.00 0.00 58 1013.2
20260504130557 12 179 3.2 8.0 0.00 0.00 0.00 58 1013.2
20260504130455 12 243 3.2 8.0 0.00 0.00 0.00 57 1013.2
20260504130356 12 244 3.2 8.0 0.00 0.00 0.00 56 1013.2
20260504130255 12 244 3.2 8.0 0.00 0.00 0.00 57 1013.3
20260504130156 12 244 1.6 8.0 0.00 0.00 0.00 57 1013.2
20260504120240 9 248 1.6 4.8 0.00 0.00 0.00 63 1013.6
20260504120140 9 248 1.6 4.8 0.00 0.00 0.00 63 1013.6
20260504110639 6 249 0.0 1.6 0.00 0.00 0.00 70 1013.6
20260504110555 6 249 0.0 1.6 0.00 0.00 0.00 71 1013.7
20260504110342 6 249 0.0 1.6 0.00 0.00 0.00 71 1013.6
20260504110240 6 249 0.0 1.6 0.00 0.00 0.00 71 1013.6
20260504110142 6 249 0.0 1.6 0.00 0.00 0.00 71 1013.6
20260504100435 5 249 0.0 1.6 0.00 0.00 0.00 72 1013.5
20260504100333 5 249 0.0 1.6 0.00 0.00 0.00 72 1013.6
20260504100249 5 249 0.0 1.6 0.00 0.00 0.00 72 1013.5
20260504081912 5 249 0.0 0.0 0.00 0.00 0.00 72 1013.2
20260504081811 5 249 0.0 0.0 0.00 0.00 0.00 72 1013.1
20260504081710 5 249 0.0 0.0 0.00 0.00 0.00 72 1013.1
20260504081610 5 249 0.0 0.0 0.00 0.00 0.00 72 1013.1
20260504081509 5 249 0.0 0.0 0.00 0.00 0.00 72 1013.2
20260504081409 5 249 0.0 0.0 0.00 0.00 0.00 72 1013.2
20260504081322 5 249 0.0 0.0 0.00 0.00 0.00 72 1013.2
20260504081136 5 249 0.0 0.0 0.00 0.00 0.00 72 1013.2
20260504080804 5 249 0.0 1.6 0.00 0.00 0.00 72 1013.2
20260504080701 5 249 0.0 1.6 0.00 0.00 0.00 72 1013.2
20260504080615 5 249 0.0 1.6 0.00 0.00 0.00 72 1013.2
20260504080402 5 249 0.0 1.6 0.00 0.00 0.00 72 1013.2
20260504080302 5 249 0.0 1.6 0.00 0.00 0.00 72 1013.2
20260504070323 5 249 0.0 0.0 0.00 0.00 0.00 73 1013.0
20260504070224 5 249 0.0 0.0 0.00 0.00 0.00 73 1012.9
20260504070137 5 249 0.0 0.0 0.00 0.00 0.00 72 1012.9
20260504060147 6 249 0.0 0.0 0.00 0.00 0.00 70 1012.9
20260504050751 6 249 0.0 0.0 0.00 0.00 0.00 71 1012.7
20260504050303 5 249 0.0 0.0 0.00 0.00 0.00 71 1012.7
20260504050204 5 249 0.0 0.0 0.00 0.00 0.00 71 1012.7
20260504050001 5 249 0.0 0.0 0.00 0.00 0.00 71 1012.7
20260504045901 5 249 0.0 0.0 0.00 0.00 0.00 71 1012.7
20260504045800 5 249 0.0 0.0 0.00 0.00 0.00 71 1012.7
20260504045659 5 249 0.0 0.0 0.00 0.00 0.00 71 1012.7
20260504045557 5 249 0.0 0.0 0.00 0.00 0.00 71 1012.7
20260504045525 5 249 0.0 0.0 0.00 0.00 0.00 71 1012.7
20260504045156 5 249 0.0 0.0 0.00 0.00 0.00 71 1012.7
20260504045123 5 249 0.0 0.0 0.00 0.00 0.00 71 1012.7
20260504044807 5 249 0.0 0.0 0.00 0.00 0.00 71 1012.7
20260504044604 5 249 0.0 0.0 0.00 0.00 0.00 71 1012.7
20260504044348 5 249 0.0 0.0 0.00 0.00 0.00 72 1012.6
20260504044302 5 249 0.0 0.0 0.00 0.00 0.00 72 1012.7
20260504044045 5 249 0.0 0.0 0.00 0.00 0.00 72 1012.6
20260504043946 5 249 0.0 0.0 0.00 0.00 0.00 71 1012.7
20260504043900 5 249 0.0 0.0 0.00 0.00 0.00 71 1012.7
20260504043644 5 249 0.0 0.0 0.00 0.00 0.00 72 1012.7
20260504043540 5 249 0.0 0.0 0.00 0.00 0.00 72 1012.7
20260504043440 5 249 0.0 0.0 0.00 0.00 0.00 72 1012.7
20260504043340 5 249 0.0 0.0 0.00 0.00 0.00 71 1012.7
20260504043239 5 249 0.0 0.0 0.00 0.00 0.00 72 1012.6
20260504043151 5 249 0.0 0.0 0.00 0.00 0.00 72 1012.6
20260504042936 5 249 0.0 0.0 0.00 0.00 0.00 71 1012.6
20260504042837 5 249 0.0 0.0 0.00 0.00 0.00 71 1012.6
20260504042735 5 249 0.0 0.0 0.00 0.00 0.00 71 1012.5
20260504042634 5 249 0.0 0.0 0.00 0.00 0.00 71 1012.5
20260504042533 5 249 0.0 0.0 0.00 0.00 0.00 71 1012.5
20260504042434 5 249 0.0 0.0 0.00 0.00 0.00 71 1012.5
20260504042331 5 249 0.0 0.0 0.00 0.00 0.00 71 1012.5
20260504042246 5 249 0.0 0.0 0.00 0.00 0.00 71 1012.5
20260504042044 5 249 0.0 0.0 0.00 0.00 0.00 71 1012.5
20260504041842 5 249 0.0 0.0 0.00 0.00 0.00 71 1012.4
20260504041628 5 249 0.0 0.0 0.00 0.00 0.00 71 1012.4
20260504041524 5 249 0.0 0.0 0.00 0.00 0.00 72 1012.4
20260504041425 5 249 0.0 0.0 0.00 0.00 0.00 72 1012.4
20260504041326 5 249 0.0 1.6 0.00 0.00 0.00 72 1012.4
20260504041223 5 249 0.0 1.6 0.00 0.00 0.00 71 1012.3
20260504041122 5 249 0.0 1.6 0.00 0.00 0.00 72 1012.4
20260504041035 5 249 0.0 1.6 0.00 0.00 0.00 72 1012.3
20260504040821 5 249 0.0 1.6 0.00 0.00 0.00 71 1012.3
20260504040734 5 249 0.0 1.6 0.00 0.00 0.00 72 1012.3
20260504040546 5 249 0.0 1.6 0.00 0.00 0.00 72 1012.3
20260504040214 5 249 0.0 0.0 0.00 0.00 0.00 72 1012.2
20260504040114 5 249 0.0 0.0 0.00 0.00 0.00 72 1012.2
20260504040015 5 249 0.0 0.0 0.00 0.00 0.00 72 1012.2
20260504035912 5 249 0.0 0.0 0.00 0.00 0.00 72 1012.2
20260504035815 5 249 0.0 0.0 0.00 0.00 0.00 72 1012.1
20260504035710 5 249 0.0 0.0 0.00 0.00 0.00 72 1012.2
20260504035612 5 249 0.0 0.0 0.00 0.00 0.00 72 1012.2
20260504035510 5 249 0.0 0.0 0.00 0.00 0.00 72 1012.1
20260504035410 5 249 0.0 0.0 0.00 0.00 0.00 72 1012.1
20260504035306 5 249 0.0 0.0 0.00 0.00 0.00 72 1012.1
20260504035206 5 249 0.0 0.0 0.00 0.00 0.00 71 1012.1
20260504035120 5 249 0.0 0.0 0.00 0.00 0.00 71 1012.1
20260504034905 5 249 0.0 0.0 0.00 0.00 0.00 71 1012.2
20260504034806 6 249 0.0 0.0 0.00 0.00 0.00 71 1012.2
20260504034702 5 249 0.0 0.0 0.00 0.00 0.00 71 1012.2
20260504034618 6 249 0.0 0.0 0.00 0.00 0.00 71 1012.2
20260504034400 6 249 0.0 0.0 0.00 0.00 0.00 72 1012.2
20260504034301 6 249 0.0 0.0 0.00 0.00 0.00 72 1012.2
20260504034200 6 249 0.0 0.0 0.00 0.00 0.00 72 1012.2
20260504034059 6 249 0.0 0.0 0.00 0.00 0.00 72 1012.2
20260504033959 6 249 0.0 0.0 0.00 0.00 0.00 71 1012.2
20260504033858 6 249 0.0 0.0 0.00 0.00 0.00 71 1012.2
20260504033754 6 249 0.0 0.0 0.00 0.00 0.00 71 1012.3
20260504033711 6 249 0.0 0.0 0.00 0.00 0.00 71 1012.2
20260504033455 6 249 0.0 0.0 0.00 0.00 0.00 71 1012.2
20260504033423 6 249 0.0 0.0 0.00 0.00 0.00 71 1012.2
20260504033052 6 249 0.0 0.0 0.00 0.00 0.00 71 1012.2
20260504032951 6 249 0.0 0.0 0.00 0.00 0.00 71 1012.2
20260504032850 6 249 0.0 0.0 0.00 0.00 0.00 71 1012.2
20260504032749 6 249 0.0 0.0 0.00 0.00 0.00 71 1012.1
20260504032702 6 249 0.0 0.0 0.00 0.00 0.00 71 1012.2
20260504032501 6 249 0.0 0.0 0.00 0.00 0.00 71 1012.2
20260504032245 6 249 0.0 0.0 0.00 0.00 0.00 70 1012.2
20260504032142 6 249 0.0 0.0 0.00 0.00 0.00 70 1012.2
20260504032044 6 249 0.0 0.0 0.00 0.00 0.00 70 1012.2
20260504031942 6 249 0.0 0.0 0.00 0.00 0.00 70 1012.1
20260504031842 6 249 0.0 0.0 0.00 0.00 0.00 70 1012.1
20260504031742 6 249 0.0 0.0 0.00 0.00 0.00 70 1012.1
20260504031639 6 249 0.0 0.0 0.00 0.00 0.00 69 1012.1
20260504031539 6 249 0.0 0.0 0.00 0.00 0.00 69 1012.1
20260504031440 6 249 0.0 0.0 0.00 0.00 0.00 69 1012.1
20260504031338 6 249 0.0 0.0 0.00 0.00 0.00 69 1012.1
20260504031239 6 249 0.0 0.0 0.00 0.00 0.00 69 1012.1
20260504031134 6 249 0.0 0.0 0.00 0.00 0.00 69 1012.1
20260504031036 6 249 0.0 0.0 0.00 0.00 0.00 69 1012.1
20260504030933 6 249 0.0 0.0 0.00 0.00 0.00 69 1012.1
20260504030850 6 249 0.0 0.0 0.00 0.00 0.00 69 1012.1
20260504030630 6 249 0.0 0.0 0.00 0.00 0.00 68 1012.1
20260504030531 6 249 0.0 0.0 0.00 0.00 0.00 68 1012.1
20260504030430 6 249 0.0 0.0 0.00 0.00 0.00 68 1012.1
20260504030330 6 249 0.0 0.0 0.00 0.00 0.00 68 1012.0
20260504030227 6 249 0.0 0.0 0.00 0.00 0.00 68 1012.1
20260504030127 6 249 0.0 0.0 0.00 0.00 0.00 68 1012.1
20260504030027 6 249 0.0 0.0 0.00 0.00 0.00 68 1012.0
20260504025954 6 249 0.0 0.0 0.00 0.00 0.00 67 1012.1
20260504025639 6 249 0.0 0.0 0.00 0.00 0.00 68 1012.1
20260504025423 6 249 0.0 0.0 0.00 0.00 0.00 68 1012.1
20260504025321 6 249 0.0 0.0 0.00 0.00 0.00 68 1012.1
20260504025222 6 249 0.0 0.0 0.00 0.00 0.00 68 1012.1
20260504025119 6 249 0.0 0.0 0.00 0.00 0.00 67 1012.1
20260504025019 6 249 0.0 0.0 0.00 0.00 0.00 68 1012.1
20260504024917 6 249 0.0 0.0 0.00 0.00 0.00 68 1012.1
20260504024816 6 249 0.0 0.0 0.00 0.00 0.00 67 1012.1
20260504024716 6 249 0.0 0.0 0.00 0.00 0.00 67 1012.1
20260504024614 6 249 0.0 0.0 0.00 0.00 0.00 67 1012.0
20260504024515 6 249 0.0 0.0 0.00 0.00 0.00 67 1012.1
20260504024414 6 249 0.0 0.0 0.00 0.00 0.00 67 1012.1
20260504024328 6 249 0.0 0.0 0.00 0.00 0.00 67 1012.0
20260504024112 6 249 0.0 0.0 0.00 0.00 0.00 67 1012.1
20260504024010 6 249 0.0 0.0 0.00 0.00 0.00 66 1012.0
20260504023911 6 249 0.0 0.0 0.00 0.00 0.00 66 1012.0
20260504023808 6 249 0.0 0.0 0.00 0.00 0.00 66 1012.1
20260504023723 7 249 0.0 0.0 0.00 0.00 0.00 66 1012.0
20260504023523 7 249 0.0 0.0 0.00 0.00 0.00 66 1012.0
20260504023304 7 249 0.0 0.0 0.00 0.00 0.00 67 1012.1
20260504023204 7 249 0.0 0.0 0.00 0.00 0.00 67 1012.1
20260504023102 7 249 0.0 0.0 0.00 0.00 0.00 67 1012.1
20260504023005 7 249 0.0 0.0 0.00 0.00 0.00 67 1012.1
20260504022934 7 249 0.0 0.0 0.00 0.00 0.00 66 1012.1
20260504022604 7 249 0.0 0.0 0.00 0.00 0.00 67 1012.1
20260504022502 7 249 0.0 0.0 0.00 0.00 0.00 67 1012.1
20260504022401 7 249 0.0 0.0 0.00 0.00 0.00 66 1012.1
20260504022317 7 249 0.0 0.0 0.00 0.00 0.00 67 1012.2
20260504022059 7 249 0.0 0.0 0.00 0.00 0.00 66 1012.2
20260504021958 7 249 0.0 0.0 0.00 0.00 0.00 66 1012.2
20260504021859 7 249 0.0 1.6 0.00 0.00 0.00 66 1012.2
20260504021757 7 249 0.0 1.6 0.00 0.00 0.00 66 1012.1
20260504021709 7 249 0.0 1.6 0.00 0.00 0.00 66 1012.2
20260504021454 7 249 0.0 3.2 0.00 0.00 0.00 65 1012.2
20260504021354 7 249 0.0 3.2 0.00 0.00 0.00 65 1012.2
20260504021252 7 249 0.0 3.2 0.00 0.00 0.00 65 1012.2
20260504021206 7 249 0.0 3.2 0.00 0.00 0.00 65 1012.2
20260504020951 7 249 0.0 3.2 0.00 0.00 0.00 64 1012.1
20260504020850 7 249 0.0 3.2 0.00 0.00 0.00 64 1012.1
20260504020750 7 249 0.0 3.2 0.00 0.00 0.00 64 1012.1
20260504020651 7 249 0.0 3.2 0.00 0.00 0.00 64 1012.1
20260504020550 7 249 0.0 0.0 0.00 0.00 0.00 64 1012.1
20260504020450 7 249 0.0 0.0 0.00 0.00 0.00 63 1012.1
20260504020346 7 249 0.0 0.0 0.00 0.00 0.00 64 1012.2
20260504020247 7 249 0.0 0.0 0.00 0.00 0.00 63 1012.2
20260504020147 7 249 0.0 0.0 0.00 0.00 0.00 63 1012.1
20260504020045 7 249 0.0 0.0 0.00 0.00 0.00 63 1012.2
20260504015945 7 249 0.0 0.0 0.00 0.00 0.00 63 1012.1
20260504015843 7 249 0.0 0.0 0.00 0.00 0.00 62 1012.1
20260504015743 8 249 0.0 0.0 0.00 0.00 0.00 62 1012.1
20260504015643 8 249 0.0 0.0 0.00 0.00 0.00 62 1012.1
20260504015541 8 249 0.0 0.0 0.00 0.00 0.00 62 1012.1
20260504015443 8 249 0.0 0.0 0.00 0.00 0.00 62 1012.1
20260504015340 8 249 0.0 0.0 0.00 0.00 0.00 62 1012.1
20260504015241 8 249 0.0 0.0 0.00 0.00 0.00 62 1012.1
20260504015139 8 249 0.0 1.6 0.00 0.00 0.00 62 1012.1
20260504015037 8 249 0.0 1.6 0.00 0.00 0.00 62 1012.1
20260504014938 8 249 0.0 1.6 0.00 0.00 0.00 62 1012.1
20260504014850 8 249 0.0 3.2 0.00 0.00 0.00 62 1012.1
20260504014634 8 249 0.0 3.2 0.00 0.00 0.00 62 1012.1
20260504014533 8 249 0.0 3.2 0.00 0.00 0.00 62 1012.1
20260504014432 8 249 0.0 3.2 0.00 0.00 0.00 63 1012.1
20260504014328 8 249 0.0 3.2 0.00 0.00 0.00 63 1012.1
20260504014228 8 249 0.0 3.2 0.00 0.00 0.00 63 1012.0
20260504014142 8 249 0.0 3.2 0.00 0.00 0.00 63 1012.0
20260504013925 8 249 0.0 3.2 0.00 0.00 0.00 62 1012.0
20260504013826 8 249 0.0 3.2 0.00 0.00 0.00 62 1012.0
20260504013724 8 249 0.0 0.0 0.00 0.00 0.00 61 1012.0
20260504013625 8 249 0.0 0.0 0.00 0.00 0.00 61 1011.9
20260504013523 8 249 0.0 0.0 0.00 0.00 0.00 61 1011.9
20260504013424 8 249 0.0 0.0 0.00 0.00 0.00 60 1011.9
20260504013321 9 249 0.0 0.0 0.00 0.00 0.00 60 1011.9
20260504013234 9 249 0.0 0.0 0.00 0.00 0.00 60 1011.9
20260504013018 9 249 0.0 0.0 0.00 0.00 0.00 59 1011.9
20260504012919 9 249 0.0 0.0 0.00 0.00 0.00 59 1011.9
20260504012817 9 249 0.0 0.0 0.00 0.00 0.00 59 1011.9
20260504012716 9 249 0.0 0.0 0.00 0.00 0.00 59 1011.8
20260504012619 9 249 0.0 0.0 0.00 0.00 0.00 58 1011.9
20260504012514 9 249 0.0 0.0 0.00 0.00 0.00 58 1011.8
20260504012429 9 249 0.0 0.0 0.00 0.00 0.00 58 1011.9
20260504012215 9 249 0.0 0.0 0.00 0.00 0.00 57 1011.9
20260504012113 10 249 0.0 0.0 0.00 0.00 0.00 57 1011.8
20260504012011 10 249 0.0 0.0 0.00 0.00 0.00 56 1011.8
20260504011908 10 249 0.0 0.0 0.00 0.00 0.00 56 1011.8
20260504011810 10 249 0.0 0.0 0.00 0.00 0.00 55 1011.8
20260504011708 10 249 0.0 0.0 0.00 0.00 0.00 55 1011.8
20260504011610 10 249 0.0 0.0 0.00 0.00 0.00 55 1011.8
20260504011552 10 249 0.0 0.0 0.00 0.00 0.00 55 1011.8
20260504011205 10 249 0.0 0.0 0.00 0.00 0.00 53 1011.7
20260504011118 10 249 0.0 0.0 0.00 0.00 0.00 53 1011.7
20260504010901 10 249 0.0 0.0 0.00 0.00 0.00 53 1011.7
20260504010802 10 249 0.0 0.0 0.00 0.00 0.00 53 1011.7
20260504010700 10 249 0.0 0.0 0.00 0.00 0.00 53 1011.6
20260504010615 10 249 0.0 0.0 0.00 0.00 0.00 52 1011.6
20260504010400 10 249 0.0 0.0 0.00 0.00 0.00 52 1011.6
20260504010300 10 249 0.0 0.0 0.00 0.00 0.00 52 1011.6
20260504010200 10 249 0.0 0.0 0.00 0.00 0.00 51 1011.6
20260504010101 11 249 0.0 0.0 0.00 0.00 0.00 51 1011.6
20260504010002 11 249 0.0 0.0 0.00 0.00 0.00 50 1011.6
20260504005901 11 249 0.0 0.0 0.00 0.00 0.00 49 1011.5
20260504005817 11 249 0.0 0.0 0.00 0.00 0.00 49 1011.5
20260504005615 11 249 0.0 0.0 0.00 0.00 0.00 49 1011.4
20260504005411 11 249 0.0 0.0 0.00 0.00 0.00 48 1011.4
20260504005158 11 249 0.0 0.0 0.00 0.00 0.00 47 1011.4
20260504005109 11 249 0.0 0.0 0.00 0.00 0.00 47 1011.4
20260504004856 11 249 0.0 0.0 0.00 0.00 0.00 47 1011.4
20260504004752 11 249 0.0 0.0 0.00 0.00 0.00 46 1011.4
20260504004653 11 249 0.0 0.0 0.00 0.00 0.00 46 1011.4
20260504004552 11 249 0.0 0.0 0.00 0.00 0.00 46 1011.4
20260504004510 11 249 0.0 0.0 0.00 0.00 0.00 45 1011.4
20260504004251 12 249 0.0 0.0 0.00 0.00 0.00 45 1011.4
20260504004150 12 249 0.0 0.0 0.00 0.00 0.00 44 1011.3
20260504004050 12 249 0.0 0.0 0.00 0.00 0.00 44 1011.4
20260504003949 12 249 0.0 0.0 0.00 0.00 0.00 44 1011.3
20260504003850 12 249 0.0 0.0 0.00 0.00 0.00 43 1011.3
20260504003748 12 249 0.0 0.0 0.00 0.00 0.00 43 1011.3
20260504003651 12 249 0.0 0.0 0.00 0.00 0.00 42 1011.3
20260504003549 12 249 0.0 0.0 0.00 0.00 0.00 42 1011.3
20260504003450 12 249 0.0 0.0 0.00 0.00 0.00 42 1011.3
20260504003346 12 249 0.0 0.0 0.00 0.00 0.00 41 1011.2
20260504003248 12 249 0.0 0.0 0.00 0.00 0.00 41 1011.2
20260504003144 12 249 0.0 0.0 0.00 0.00 0.00 41 1011.2
20260504003046 12 249 0.0 0.0 0.00 0.00 0.00 40 1011.2
20260504002945 12 249 0.0 0.0 0.00 0.00 0.00 41 1011.2
20260504002844 12 249 0.0 0.0 0.00 0.00 0.00 40 1011.1
20260504002743 12 249 0.0 0.0 0.00 0.00 0.00 40 1011.1
20260504002658 12 249 0.0 1.6 0.00 0.00 0.00 40 1011.1
20260504002443 13 249 0.0 1.6 0.00 0.00 0.00 40 1011.1
20260504002343 13 249 0.0 3.2 0.00 0.00 0.00 40 1011.1
20260504002242 13 249 0.0 3.2 0.00 0.00 0.00 40 1011.1
20260504002143 13 249 0.0 3.2 0.00 0.00 0.00 40 1011.1
20260504002040 13 249 0.0 3.2 0.00 0.00 0.00 40 1011.1
20260504001940 13 249 0.0 3.2 0.00 0.00 0.00 40 1011.1
20260504001840 13 249 0.0 3.2 0.00 0.00 0.00 40 1011.0
20260504001740 13 249 0.0 3.2 0.00 0.00 0.00 40 1011.0
20260504001639 13 249 0.0 3.2 0.00 0.00 0.00 39 1011.0
20260504001553 13 249 0.0 3.2 0.00 0.00 0.00 39 1011.0
20260504001337 13 249 0.0 3.2 0.00 0.00 0.00 39 1011.0
20260504001236 13 249 0.0 3.2 0.00 0.00 0.00 39 1011.0
20260504001152 13 249 1.6 3.2 0.00 0.00 0.00 39 1010.9
20260504000933 13 249 1.6 4.8 0.00 0.00 0.00 38 1010.9
20260504000833 13 249 1.6 4.8 0.00 0.00 0.00 38 1010.9
20260504000734 13 249 1.6 4.8 0.00 0.00 0.00 37 1010.9
20260504000633 13 249 1.6 4.8 0.00 0.00 0.00 38 1010.9
20260504000547 13 249 1.6 4.8 0.00 0.00 0.00 37 1010.9
20260504000346 13 249 1.6 4.8 0.00 0.00 0.00 37 1010.8
20260504000130 13 249 1.6 4.8 0.00 0.00 0.00 37 1010.8
20260504000031 13 249 1.6 9.7 0.00 0.00 0.00 37 1010.8
20260503235945 13 249 1.6 9.7 0.00 0.00 0.00 37 1010.8
20260503235746 13 249 1.6 9.7 0.00 0.00 0.00 37 1010.8
20260503235529 13 249 1.6 9.7 0.00 0.00 0.00 36 1010.7
20260503235427 13 249 1.6 9.7 0.00 0.00 0.00 36 1010.7
20260503235328 13 249 3.2 9.7 0.00 0.00 0.00 37 1010.7
20260503235228 14 249 3.2 9.7 0.00 0.00 0.00 36 1010.7
20260503235127 14 249 3.2 9.7 0.00 0.00 0.00 36 1010.7
20260503235025 14 254 1.6 8.0 0.00 0.00 0.00 37 1010.7
20260503234925 14 248 3.2 6.4 0.00 0.00 0.00 36 1010.7
20260503234826 14 248 1.6 6.4 0.00 0.00 0.00 36 1010.6
20260503234725 14 250 3.2 6.4 0.00 0.00 0.00 36 1010.6
20260503234640 14 250 3.2 6.4 0.00 0.00 0.00 36 1010.6
20260503234424 14 249 3.2 6.4 0.00 0.00 0.00 36 1010.6
20260503234323 14 242 3.2 6.4 0.00 0.00 0.00 37 1010.5
20260503234223 14 242 3.2 9.7 0.00 0.00 0.00 36 1010.5
20260503234123 14 242 3.2 9.7 0.00 0.00 0.00 36 1010.5
20260503234037 14 242 3.2 9.7 0.00 0.00 0.00 36 1010.5
20260503233824 14 240 3.2 12.9 0.00 0.00 0.00 36 1010.5
20260503233723 14 240 3.2 12.9 0.00 0.00 0.00 36 1010.5
20260503233637 14 240 3.2 12.9 0.00 0.00 0.00 35 1010.5
20260503233424 14 240 3.2 12.9 0.00 0.00 0.00 35 1010.5
20260503233322 14 240 3.2 12.9 0.00 0.00 0.00 35 1010.5
20260503233224 14 271 3.2 12.9 0.00 0.00 0.00 35 1010.4
20260503233122 14 271 1.6 12.9 0.00 0.00 0.00 35 1010.4
20260503233041 14 274 1.6 12.9 0.00 0.00 0.00 34 1010.4
20260503232823 14 249 1.6 3.2 0.00 0.00 0.00 36 1010.4
20260503232724 15 249 1.6 3.2 0.00 0.00 0.00 36 1010.4
20260503232639 15 249 1.6 3.2 0.00 0.00 0.00 37 1010.4
20260503232454 15 249 1.6 6.4 0.00 0.00 0.00 35 1010.3
20260503232139 15 249 0.0 6.4 0.00 0.00 0.00 36 1010.3
20260503231922 15 249 0.0 6.4 0.00 0.00 0.00 35 1010.3
20260503231839 15 249 0.0 6.4 0.00 0.00 0.00 34 1010.4
20260503231622 15 249 0.0 6.4 0.00 0.00 0.00 35 1010.4
20260503231524 15 285 0.0 6.4 0.00 0.00 0.00 35 1010.4
20260503231422 15 285 1.6 6.4 0.00 0.00 0.00 36 1010.3
20260503231323 15 286 1.6 6.4 0.00 0.00 0.00 36 1010.4
20260503231222 15 286 1.6 6.4 0.00 0.00 0.00 35 1010.3
20260503231122 15 286 1.6 6.4 0.00 0.00 0.00 36 1010.3
20260503231024 15 286 1.6 6.4 0.00 0.00 0.00 34 1010.3
20260503230924 15 286 1.6 6.4 0.00 0.00 0.00 34 1010.2
20260503230824 15 286 3.2 8.0 0.00 0.00 0.00 34 1010.3
20260503230724 15 286 3.2 8.0 0.00 0.00 0.00 34 1010.3
20260503230623 15 286 3.2 11.3 0.00 0.00 0.00 33 1010.2
20260503230523 15 279 3.2 11.3 0.00 0.00 0.00 34 1010.2
20260503230424 15 242 3.2 11.3 0.00 0.00 0.00 33 1010.3
20260503230324 15 242 3.2 11.3 0.00 0.00 0.00 33 1010.3
20260503230223 15 242 3.2 11.3 0.00 0.00 0.00 33 1010.3
20260503230139 15 242 3.2 11.3 0.00 0.00 0.00 33 1010.3
20260503225922 15 239 3.2 11.3 0.00 0.00 0.00 33 1010.2
20260503225825 15 247 3.2 11.3 0.00 0.00 0.00 33 1010.2
20260503225809 15 257 3.2 11.3 0.00 0.00 0.00 33 1010.2
20260503225322 15 245 3.2 14.5 0.00 0.00 0.00 33 1010.2
20260503225255 15 245 3.2 14.5 0.00 0.00 0.00 33 1010.2
20260503224938 15 246 4.8 14.5 0.00 0.00 0.00 33 1010.2
20260503224740 15 318 4.8 14.5 0.00 0.00 0.00 33 1010.2
20260503224523 15 317 4.8 17.7 0.00 0.00 0.00 32 1010.2
20260503224423 15 272 4.8 17.7 0.00 0.00 0.00 33 1010.2
20260503224325 15 244 4.8 17.7 0.00 0.00 0.00 32 1010.1
20260503224224 15 263 4.8 17.7 0.00 0.00 0.00 32 1010.1
20260503224139 15 269 6.4 17.7 0.00 0.00 0.00 32 1010.1
20260503223922 15 285 6.4 19.3 0.00 0.00 0.00 34 1010.0
20260503223824 15 328 6.4 19.3 0.00 0.00 0.00 33 1010.0
20260503223722 15 270 6.4 19.3 0.00 0.00 0.00 32 1010.1
20260503223623 15 323 6.4 19.3 0.00 0.00 0.00 33 1010.1
20260503223522 15 268 6.4 19.3 0.00 0.00 0.00 32 1010.0
20260503223455 15 329 6.4 19.3 0.00 0.00 0.00 32 1010.1
20260503223124 15 251 6.4 19.3 0.00 0.00 0.00 33 1009.9
20260503223024 15 252 8.0 19.3 0.00 0.00 0.00 31 1010.0
20260503222924 15 246 6.4 19.3 0.00 0.00 0.00 31 1010.0
20260503222824 15 265 6.4 17.7 0.00 0.00 0.00 32 1010.0
20260503222722 15 246 6.4 17.7 0.00 0.00 0.00 32 1010.1
20260503222624 15 302 6.4 17.7 0.00 0.00 0.00 32 1010.0
20260503222525 15 272 6.4 17.7 0.00 0.00 0.00 32 1010.0
20260503222440 15 253 6.4 17.7 0.00 0.00 0.00 31 1010.0
20260503222224 15 246 4.8 19.3 0.00 0.00 0.00 32 1010.1
20260503222122 15 326 6.4 19.3 0.00 0.00 0.00 31 1010.1
20260503222023 15 304 6.4 19.3 0.00 0.00 0.00 33 1010.0
20260503221923 15 275 6.4 19.3 0.00 0.00 0.00 32 1010.1
20260503221823 15 261 4.8 19.3 0.00 0.00 0.00 32 1010.1
20260503221722 15 239 4.8 19.3 0.00 0.00 0.00 31 1010.1
20260503221639 16 271 4.8 19.3 0.00 0.00 0.00 31 1010.1
20260503221439 16 273 4.8 19.3 0.00 0.00 0.00 31 1010.0
20260503221222 16 28 3.2 16.1 0.00 0.00 0.00 30 1010.0
20260503221123 16 325 3.2 9.7 0.00 0.00 0.00 32 1010.0
20260503221023 16 241 3.2 11.3 0.00 0.00 0.00 31 1010.0
20260503220954 16 240 3.2 12.9 0.00 0.00 0.00 32 1010.0
20260503220638 16 264 3.2 12.9 0.00 0.00 0.00 33 1010.0
20260503220425 16 244 3.2 12.9 0.00 0.00 0.00 32 1010.0
20260503220323 16 244 4.8 16.1 0.00 0.00 0.00 33 1009.9
20260503220222 16 244 4.8 16.1 0.00 0.00 0.00 31 1010.0
20260503220123 16 230 4.8 16.1 0.00 0.00 0.00 30 1010.0
20260503220023 16 236 4.8 16.1 0.00 0.00 0.00 32 1010.0
20260503215923 16 265 4.8 16.1 0.00 0.00 0.00 31 1010.0
20260503215823 16 265 4.8 16.1 0.00 0.00 0.00 32 1010.0
20260503215724 16 265 4.8 16.1 0.00 0.00 0.00 32 1010.0
20260503215624 16 327 4.8 16.1 0.00 0.00 0.00 32 1010.0
20260503215523 16 306 4.8 16.1 0.00 0.00 0.00 32 1010.0
20260503215424 16 306 4.8 24.1 0.00 0.00 0.00 31 1010.0
20260503215323 15 327 4.8 24.1 0.00 0.00 0.00 31 1010.0
20260503215224 15 321 6.4 24.1 0.00 0.00 0.00 31 1010.0
20260503215123 15 254 6.4 24.1 0.00 0.00 0.00 31 1010.0
20260503215024 15 307 6.4 24.1 0.00 0.00 0.00 31 1010.0
20260503214922 15 273 6.4 24.1 0.00 0.00 0.00 32 1010.0
20260503214822 15 311 6.4 24.1 0.00 0.00 0.00 32 1010.0
20260503214724 15 346 6.4 24.1 0.00 0.00 0.00 31 1010.1
20260503214624 15 227 8.0 24.1 0.00 0.00 0.00 30 1010.0
20260503214523 15 247 8.0 24.1 0.00 0.00 0.00 31 1010.0
20260503214424 15 240 6.4 22.5 0.00 0.00 0.00 31 1010.0
20260503214323 15 254 6.4 22.5 0.00 0.00 0.00 31 1010.0
20260503214240 15 265 6.4 22.5 0.00 0.00 0.00 32 1010.1
20260503214023 15 283 6.4 22.5 0.00 0.00 0.00 31 1010.1
20260503213924 15 277 6.4 22.5 0.00 0.00 0.00 31 1010.1
20260503213839 15 334 4.8 22.5 0.00 0.00 0.00 32 1010.1
20260503213623 15 242 4.8 22.5 0.00 0.00 0.00 31 1010.1
20260503213539 15 277 4.8 19.3 0.00 0.00 0.00 32 1010.0
20260503213322 15 242 6.4 22.5 0.00 0.00 0.00 32 1010.0
20260503213222 15 238 6.4 22.5 0.00 0.00 0.00 31 1010.0
20260503213120 15 239 6.4 22.5 0.00 0.00 0.00 32 1010.1
20260503213021 15 250 6.4 22.5 0.00 0.00 0.00 32 1010.1
20260503212920 15 237 6.4 22.5 0.00 0.00 0.00 32 1010.0
20260503212820 15 319 6.4 22.5 0.00 0.00 0.00 32 1010.1
20260503212718 15 248 8.0 22.5 0.00 0.00 0.00 31 1010.0
20260503212619 15 256 8.0 22.5 0.00 0.00 0.00 32 1010.0
20260503212533 15 262 8.0 22.5 0.00 0.00 0.00 31 1010.1
20260503212318 15 253 8.0 17.7 0.00 0.00 0.00 32 1010.1
20260503212215 15 260 8.0 20.9 0.00 0.00 0.00 32 1010.1
20260503212149 15 299 8.0 20.9 0.00 0.00 0.00 31 1009.9
20260503211816 15 341 6.4 20.9 0.00 0.00 0.00 32 1010.0
20260503211730 15 246 6.4 20.9 0.00 0.00 0.00 32 1010.1
20260503211512 15 323 6.4 20.9 0.00 0.00 0.00 32 1010.0
20260503211427 15 287 6.4 20.9 0.00 0.00 0.00 32 1010.1
20260503211209 15 260 6.4 22.5 0.00 0.00 0.00 32 1010.2
20260503211109 15 238 6.4 22.5 0.00 0.00 0.00 33 1010.0
20260503211010 15 319 8.0 22.5 0.00 0.00 0.00 33 1010.1
20260503210910 15 277 8.0 22.5 0.00 0.00 0.00 32 1010.0
20260503210810 15 238 8.0 22.5 0.00 0.00 0.00 32 1010.0
20260503210724 15 244 8.0 22.5 0.00 0.00 0.00 32 1010.1
20260503210507 15 157 8.0 22.5 0.00 0.00 0.00 32 1010.1
20260503210407 15 305 8.0 22.5 0.00 0.00 0.00 31 1009.9
20260503210307 15 275 8.0 22.5 0.00 0.00 0.00 32 1010.0
20260503210205 15 5 9.7 22.5 0.00 0.00 0.00 32 1010.0
20260503210104 15 250 9.7 22.5 0.00 0.00 0.00 32 1010.0
20260503210006 15 248 8.0 22.5 0.00 0.00 0.00 31 1010.0
20260503205905 15 250 9.7 22.5 0.00 0.00 0.00 32 1010.1
20260503205805 15 271 9.7 22.5 0.00 0.00 0.00 32 1010.1
20260503205703 15 258 9.7 22.5 0.00 0.00 0.00 31 1010.0
20260503205604 15 259 9.7 22.5 0.00 0.00 0.00 32 1010.1
20260503205504 15 254 9.7 22.5 0.00 0.00 0.00 32 1010.1
20260503205405 15 5 8.0 22.5 0.00 0.00 0.00 31 1010.0
20260503205304 15 251 8.0 22.5 0.00 0.00 0.00 31 1010.1
20260503205204 15 238 8.0 22.5 0.00 0.00 0.00 32 1010.1
20260503205120 15 263 8.0 22.5 0.00 0.00 0.00 32 1010.1
20260503204904 15 239 6.4 19.3 0.00 0.00 0.00 32 1010.1
20260503204804 15 268 6.4 19.3 0.00 0.00 0.00 32 1010.1
20260503204704 15 278 6.4 19.3 0.00 0.00 0.00 32 1010.0
20260503204605 15 243 6.4 19.3 0.00 0.00 0.00 33 1010.0
20260503204505 15 268 6.4 19.3 0.00 0.00 0.00 32 1010.0
20260503204418 15 258 6.4 19.3 0.00 0.00 0.00 32 1009.9
20260503204158 15 227 6.4 20.9 0.00 0.00 0.00 34 1010.1
20260503204058 15 338 6.4 20.9 0.00 0.00 0.00 33 1010.0
20260503203958 14 271 6.4 20.9 0.00 0.00 0.00 32 1010.0
20260503203858 14 270 6.4 20.9 0.00 0.00 0.00 33 1010.1
20260503203813 14 267 6.4 20.9 0.00 0.00 0.00 33 1010.1
20260503203556 14 283 6.4 20.9 0.00 0.00 0.00 32 1010.1
20260503203512 14 277 6.4 20.9 0.00 0.00 0.00 31 1010.1
20260503203253 14 238 6.4 20.9 0.00 0.00 0.00 33 1010.1
20260503203209 14 264 6.4 20.9 0.00 0.00 0.00 33 1010.1
20260503202953 15 258 6.4 20.9 0.00 0.00 0.00 32 1010.2
20260503202853 15 294 6.4 20.9 0.00 0.00 0.00 33 1010.1
20260503202752 15 333 6.4 20.9 0.00 0.00 0.00 34 1010.2
20260503202650 14 293 6.4 20.9 0.00 0.00 0.00 33 1010.1
20260503202550 14 289 8.0 20.9 0.00 0.00 0.00 33 1010.1
20260503202450 14 240 8.0 20.9 0.00 0.00 0.00 32 1010.2
20260503202351 14 251 8.0 27.4 0.00 0.00 0.00 33 1010.1
20260503202249 15 280 8.0 27.4 0.00 0.00 0.00 33 1010.2
20260503202207 14 250 8.0 27.4 0.00 0.00 0.00 33 1010.2
20260503201949 14 275 8.0 29.0 0.00 0.00 0.00 33 1010.2
20260503201848 14 231 8.0 29.0 0.00 0.00 0.00 33 1010.2
20260503201804 14 223 8.0 29.0 0.00 0.00 0.00 33 1010.2
20260503201549 14 244 9.7 29.0 0.00 0.00 0.00 32 1010.2
20260503201445 14 250 9.7 29.0 0.00 0.00 0.00 33 1010.3
20260503201400 14 260 9.7 29.0 0.00 0.00 0.00 32 1010.2
20260503201143 14 282 8.0 29.0 0.00 0.00 0.00 32 1010.4
20260503201059 14 322 8.0 19.3 0.00 0.00 0.00 31 1010.4
20260503200840 15 240 8.0 19.3 0.00 0.00 0.00 34 1010.3
20260503200738 15 287 8.0 19.3 0.00 0.00 0.00 32 1010.4
20260503200639 15 256 8.0 16.1 0.00 0.00 0.00 32 1010.3
20260503200537 15 267 8.0 16.1 0.00 0.00 0.00 33 1010.5
20260503200440 15 273 8.0 16.1 0.00 0.00 0.00 33 1010.4
20260503200336 15 257 6.4 16.1 0.00 0.00 0.00 35 1010.4
20260503200236 15 323 6.4 16.1 0.00 0.00 0.00 36 1010.4
20260503200136 14 251 6.4 16.1 0.00 0.00 0.00 35 1010.4
20260503200036 14 233 6.4 19.3 0.00 0.00 0.00 35 1010.3
20260503195935 14 329 6.4 19.3 0.00 0.00 0.00 35 1010.3
20260503195836 14 260 6.4 19.3 0.00 0.00 0.00 34 1010.4
20260503195737 14 258 6.4 19.3 0.00 0.00 0.00 34 1010.4
20260503195708 14 261 6.4 19.3 0.00 0.00 0.00 35 1010.5
20260503195419 13 292 8.0 19.3 0.00 0.00 0.00 34 1010.4
20260503194931 13 240 8.0 20.9 0.00 0.00 0.00 35 1010.5
20260503194829 13 284 8.0 20.9 0.00 0.00 0.00 35 1010.5
20260503194730 13 304 8.0 20.9 0.00 0.00 0.00 34 1010.5
20260503194630 13 355 8.0 20.9 0.00 0.00 0.00 34 1010.5
20260503194530 13 250 8.0 20.9 0.00 0.00 0.00 34 1010.5
20260503194429 13 229 8.0 20.9 0.00 0.00 0.00 34 1010.5
20260503194331 13 236 8.0 20.9 0.00 0.00 0.00 34 1010.5
20260503194230 13 253 8.0 20.9 0.00 0.00 0.00 35 1010.5
20260503194131 13 230 8.0 17.7 0.00 0.00 0.00 36 1010.5
20260503194045 13 264 8.0 17.7 0.00 0.00 0.00 36 1010.6
20260503193829 13 256 8.0 17.7 0.00 0.00 0.00 35 1010.5
20260503193729 13 302 8.0 17.7 0.00 0.00 0.00 35 1010.5
20260503193627 13 243 8.0 19.3 0.00 0.00 0.00 35 1010.4
20260503193528 13 250 8.0 19.3 0.00 0.00 0.00 34 1010.4
20260503193427 13 321 8.0 19.3 0.00 0.00 0.00 34 1010.5
20260503193327 13 235 6.4 19.3 0.00 0.00 0.00 34 1010.6
20260503193227 13 243 6.4 19.3 0.00 0.00 0.00 35 1010.5
20260503193128 13 309 6.4 19.3 0.00 0.00 0.00 35 1010.5
20260503193025 13 271 6.4 22.5 0.00 0.00 0.00 35 1010.6
20260503192939 13 228 6.4 22.5 0.00 0.00 0.00 35 1010.6
20260503192723 13 258 8.0 22.5 0.00 0.00 0.00 37 1010.6
20260503192624 13 237 6.4 22.5 0.00 0.00 0.00 35 1010.6
20260503192524 13 232 6.4 22.5 0.00 0.00 0.00 36 1010.7
20260503192442 13 270 6.4 22.5 0.00 0.00 0.00 37 1010.7
20260503192239 13 242 8.0 22.5 0.00 0.00 0.00 36 1010.7
20260503192023 13 348 8.0 20.9 0.00 0.00 0.00 35 1010.7
20260503191923 13 240 6.4 20.9 0.00 0.00 0.00 35 1010.7
20260503191824 13 294 6.4 20.9 0.00 0.00 0.00 38 1010.7
20260503191722 13 278 6.4 20.9 0.00 0.00 0.00 36 1010.7
20260503191619 13 279 6.4 20.9 0.00 0.00 0.00 35 1010.8
20260503191535 13 285 6.4 20.9 0.00 0.00 0.00 36 1010.8
20260503191318 13 5 4.8 17.7 0.00 0.00 0.00 39 1010.9
20260503191219 13 17 4.8 16.1 0.00 0.00 0.00 36 1010.8
20260503191117 13 336 4.8 17.7 0.00 0.00 0.00 37 1010.7
20260503191019 13 238 4.8 17.7 0.00 0.00 0.00 36 1010.8
20260503190918 13 317 4.8 17.7 0.00 0.00 0.00 37 1010.7
20260503190815 13 202 6.4 17.7 0.00 0.00 0.00 37 1010.7
20260503190713 13 198 6.4 17.7 0.00 0.00 0.00 39 1010.7
20260503190615 13 229 6.4 17.7 0.00 0.00 0.00 39 1010.8
20260503190544 13 275 6.4 17.7 0.00 0.00 0.00 36 1010.9
20260503190212 13 260 8.0 20.9 0.00 0.00 0.00 37 1010.8
20260503190113 13 298 6.4 20.9 0.00 0.00 0.00 38 1010.7
20260503190012 13 300 8.0 20.9 0.00 0.00 0.00 37 1010.8
20260503185928 13 264 8.0 20.9 0.00 0.00 0.00 37 1010.8
20260503185712 13 223 8.0 20.9 0.00 0.00 0.00 37 1010.9
20260503185610 13 258 8.0 20.9 0.00 0.00 0.00 38 1010.9
20260503185511 13 260 8.0 20.9 0.00 0.00 0.00 38 1010.9
20260503185411 13 188 8.0 20.9 0.00 0.00 0.00 39 1010.9
20260503185310 13 265 8.0 20.9 0.00 0.00 0.00 38 1010.8
20260503185209 13 241 8.0 20.9 0.00 0.00 0.00 38 1010.8
20260503185110 13 237 8.0 22.5 0.00 0.00 0.00 38 1010.9
20260503185026 13 219 8.0 29.0 0.00 0.00 0.00 37 1010.9
20260503184810 12 236 9.7 29.0 0.00 0.00 0.00 38 1010.9
20260503184727 12 5 9.7 29.0 0.00 0.00 0.00 38 1010.9
20260503184526 12 250 9.7 29.0 0.00 0.00 0.00 38 1011.0
20260503184309 13 262 9.7 29.0 0.00 0.00 0.00 36 1011.0
20260503184207 13 239 9.7 29.0 0.00 0.00 0.00 36 1011.0
20260503184126 13 245 9.7 29.0 0.00 0.00 0.00 35 1011.1
20260503183908 13 259 9.7 22.5 0.00 0.00 0.00 36 1011.0
20260503183809 13 280 8.0 22.5 0.00 0.00 0.00 37 1011.1
20260503183709 13 346 8.0 22.5 0.00 0.00 0.00 39 1011.0
20260503183607 13 9 8.0 22.5 0.00 0.00 0.00 38 1011.0
20260503183524 13 300 8.0 22.5 0.00 0.00 0.00 36 1011.0
20260503183308 13 286 8.0 17.7 0.00 0.00 0.00 38 1011.0
20260503183222 13 277 8.0 17.7 0.00 0.00 0.00 40 1011.0
20260503183005 13 273 6.4 17.7 0.00 0.00 0.00 37 1011.1
20260503182906 13 252 6.4 17.7 0.00 0.00 0.00 37 1011.0
20260503182805 13 243 6.4 17.7 0.00 0.00 0.00 37 1011.1
20260503182731 13 269 6.4 17.7 0.00 0.00 0.00 37 1011.1
20260503182714 13 217 6.4 17.7 0.00 0.00 0.00 39 1011.0
20260503182139 12 302 6.4 16.1 0.00 0.00 0.00 38 1011.0
20260503181804 12 306 6.4 17.7 0.00 0.00 0.00 38 1011.1
20260503181705 12 252 6.4 17.7 0.00 0.00 0.00 39 1011.2
20260503181604 12 248 6.4 17.7 0.00 0.00 0.00 38 1011.1
20260503181506 13 244 6.4 17.7 0.00 0.00 0.00 39 1011.3
20260503181403 12 246 4.8 17.7 0.00 0.00 0.00 41 1011.1
20260503181304 12 247 6.4 17.7 0.00 0.00 0.00 40 1011.1
20260503181204 12 254 4.8 17.7 0.00 0.00 0.00 41 1011.2
20260503181104 12 265 4.8 17.7 0.00 0.00 0.00 40 1011.2
20260503181005 12 246 6.4 17.7 0.00 0.00 0.00 40 1011.0
20260503180905 12 250 6.4 24.1 0.00 0.00 0.00 39 1011.0
20260503180801 12 297 6.4 24.1 0.00 0.00 0.00 39 1011.2
20260503180719 12 254 4.8 24.1 0.00 0.00 0.00 42 1011.0
20260503180501 12 236 6.4 24.1 0.00 0.00 0.00 43 1011.1
20260503180420 12 236 6.4 24.1 0.00 0.00 0.00 43 1011.1
20260503180235 12 238 6.4 24.1 0.00 0.00 0.00 40 1011.2
20260503175903 12 280 6.4 19.3 0.00 0.00 0.00 42 1011.2
20260503175832 12 263 6.4 24.1 0.00 0.00 0.00 41 1011.1
20260503175500 12 267 8.0 24.1 0.00 0.00 0.00 41 1011.2
20260503175401 12 276 8.0 24.1 0.00 0.00 0.00 41 1011.3
20260503175315 11 304 8.0 24.1 0.00 0.00 0.00 46 1011.2
20260503175100 11 257 8.0 24.1 0.00 0.00 0.00 43 1011.1
20260503174959 11 0 8.0 24.1 0.00 0.00 0.00 47 1011.2
20260503174900 11 281 8.0 24.1 0.00 0.00 0.00 42 1011.2
20260503174759 11 327 8.0 17.7 0.00 0.00 0.00 43 1011.3
20260503174716 11 240 6.4 17.7 0.00 0.00 0.00 41 1011.2
20260503174500 11 250 6.4 16.1 0.00 0.00 0.00 42 1011.3
20260503174357 11 240 6.4 16.1 0.00 0.00 0.00 42 1011.4
20260503174300 11 238 6.4 16.1 0.00 0.00 0.00 42 1011.4
20260503174214 11 263 6.4 16.1 0.00 0.00 0.00 42 1011.3
20260503173957 11 234 6.4 16.1 0.00 0.00 0.00 44 1011.4
20260503173858 11 253 6.4 16.1 0.00 0.00 0.00 47 1011.5
20260503173758 11 271 6.4 20.9 0.00 0.00 0.00 45 1011.5
20260503173727 11 268 8.0 22.5 0.00 0.00 0.00 44 1011.5
20260503173354 11 355 8.0 22.5 0.00 0.00 0.00 43 1011.5
20260503173254 11 351 8.0 22.5 0.00 0.00 0.00 43 1011.6
20260503173154 11 305 8.0 22.5 0.00 0.00 0.00 45 1011.5
20260503173110 10 289 8.0 22.5 0.00 0.00 0.00 44 1011.5
20260503172853 11 248 8.0 22.5 0.00 0.00 0.00 43 1011.5
20260503172755 11 248 6.4 22.5 0.00 0.00 0.00 44 1011.5
20260503172654 11 228 6.4 16.1 0.00 0.00 0.00 44 1011.5
20260503172553 11 277 6.4 16.1 0.00 0.00 0.00 45 1011.5
20260503172453 11 267 6.4 16.1 0.00 0.00 0.00 45 1011.5
20260503172354 10 254 6.4 16.1 0.00 0.00 0.00 44 1011.5
20260503172251 10 240 6.4 16.1 0.00 0.00 0.00 44 1011.5
20260503172153 10 350 6.4 16.1 0.00 0.00 0.00 44 1011.5
20260503172108 10 253 6.4 16.1 0.00 0.00 0.00 45 1011.7
20260503171852 10 253 8.0 22.5 0.00 0.00 0.00 45 1011.7
20260503171751 10 253 8.0 22.5 0.00 0.00 0.00 45 1011.6
20260503171651 10 330 8.0 22.5 0.00 0.00 0.00 47 1011.7
20260503171553 10 279 8.0 22.5 0.00 0.00 0.00 46 1011.6
20260503171449 10 279 9.7 22.5 0.00 0.00 0.00 46 1011.6
20260503171351 10 280 9.7 22.5 0.00 0.00 0.00 44 1011.6
20260503171249 10 261 9.7 22.5 0.00 0.00 0.00 44 1011.6
20260503171147 10 344 11.3 22.5 0.00 0.00 0.00 44 1011.7
20260503171048 10 244 11.3 22.5 0.00 0.00 0.00 43 1011.8
20260503171003 10 304 9.7 22.5 0.00 0.00 0.00 44 1011.7
20260503170744 11 246 9.7 22.5 0.00 0.00 0.00 44 1011.8
20260503170644 11 292 9.7 22.5 0.00 0.00 0.00 45 1011.8
20260503170544 11 237 8.0 22.5 0.00 0.00 0.00 44 1011.8
20260503170458 11 328 8.0 22.5 0.00 0.00 0.00 46 1011.8
20260503170242 11 281 8.0 20.9 0.00 0.00 0.00 45 1011.8
20260503170224 10 246 6.4 20.9 0.00 0.00 0.00 45 1011.9
20260503160215 10 306 8.0 22.5 0.00 0.00 0.00 47 1012.1
20260503160116 10 287 8.0 22.5 0.00 0.00 0.00 48 1012.1